Temperature
24 24 23 23 22 22 22 21 21 21 21 20 20 20 20 19 19 19 19 19 19 19 19 19 18 18 18 18 18 18 18 18 18 18 18 18 18 18 18 18 18 18 18
24 23 23 23 22 22 22 22 21 21 21 21 20 20 20 19 19 19 19 19 19 19 19 19 19 18 18 18 18 18 18 18 18 18 18 17 18 18 18 18 18 18 18
24 23 23 23 22 22 22 22 21 21 21 20 20 20 20 19 19 19 19 19 19 19 19 19 19 19 18 18 18 18 18 18 18 18 18 17 17 17 18 18 18 18 18
24 23 23 23 23 23 22 22 22 21 21 20 20 20 20 20 19 19 19 19 19 19 19 19 19 19 19 18 18 18 18 18 18 18 18 18 17 17 17 17 17 17 17
24 24 23 23 23 23 22 22 21 21 21 21 20 20 20 20 20 19 19 19 19 19 19 19 19 19 19 19 18 18 18 18 18 18 18 18 18 17 17 17 17 17 17
24 24 23 23 23 22 22 22 21 21 21 21 20 20 20 20 20 19 19 19 19 19 19 19 19 19 19 19 19 18 18 18 18 18 18 18 17 17 17 17 17 17 17
24 23 23 23 23 22 22 22 21 21 21 20 20 20 20 20 20 20 19 19 19 19 19 19 19 19 19 19 18 18 18 18 18 18 18 17 17 17 17 17 17 17 17
24 23 23 23 23 22 22 22 21 21 21 20 20 20 20 20 19 19 19 19 19 19 19 19 19 19 19 19 19 18 18 18 18 18 18 17 17 17 17 17 17 16 16
23 24 23 23 23 22 22 22 22 21 21 21 20 20 20 20 20 19 19 19 19 19 19 19 19 19 19 19 18 18 18 18 18 18 17 17 17 17 17 17 17 16 15
24 24 24 23 23 23 22 22 22 22 21 21 21 20 20 20 20 20 19 19 19 19 19 19 19 18 18 18 18 18 18 18 18 17 17 17 17 17 17 16 16 16 16
24 24 24 24 23 22 22 22 22 21 21 21 20 20 20 20 20 19 19 19 19 19 19 19 18 18 18 18 18 18 18 18 17 17 17 17 17 16 16 16 16 16 16
23 23 23 23 23 22 22 22 22 21 21 21 20 20 20 20 20 19 19 19 19 19 19 18 18 18 18 18 18 17 17 17 17 17 17 16 16 16 16 16 16 16 16
23 23 23 22 22 22 22 21 21 21 21 20 20 20 20 20 19 19 19 19 19 18 18 18 18 18 18 17 17 17 17 17 17 16 16 16 16 16 16 16 16 15 15
23 22 22 22 22 22 22 21 21 21 20 20 20 20 19 19 19 19 19 18 18 18 18 18 18 17 17 17 17 17 17 16 16 16 16 16 16 16 15 15 15 15 15
22 22 22 22 22 22 22 21 21 20 20 19 19 19 19 19 19 18 18 18 18 18 18 18 17 17 17 17 17 17 16 16 16 16 16 16 15 15 15 15 15 15 15
22 22 22 22 22 22 22 21 21 20 20 19 19 19 19 19 19 18 18 18 18 18 17 17 17 17 17 17 16 16 16 16 16 16 15 15 15 15 15 15 15 14 14
22 22 22 22 22 22 21 21 21 20 20 19 19 19 19 18 18 18 18 18 17 17 17 17 17 17 17 16 16 16 16 16 16 15 15 15 15 15 15 15 14 14 14
22 22 22 22 22 22 21 21 21 20 20 19 19 19 19 18 18 18 17 17 17 17 17 17 17 17 16 16 16 16 16 15 15 15 15 15 15 15 15 14 14 14 14
22 22 22 22 22 21 21 20 20 20 19 19 19 19 18 18 18 18 17 17 17 17 17 17 16 16 16 16 16 15 15 15 15 15 15 15 15 14 14 14 14 14 14
22 21 21 21 21 21 20 20 19 19 19 19 18 18 18 18 18 17 17 17 17 17 16 16 16 16 16 16 15 15 15 15 15 15 14 14 14 14 14 14 14 14 13
21 21 21 20 20 20 20 19 19 19 19 19 18 18 18 18 17 17 17 16 16 16 16 16 16 16 15 15 15 15 15 14 14 14 14 14 14 14 14 14 13 13 13
21 21 20 20 19 19 19 19 19 19 18 18 18 18 17 17 17 17 16 16 16 16 16 15 15 15 15 15 15 14 14 14 14 14 14 14 14 14 13 13 13 13 13
20 20 20 19 19 18 18 19 18 18 18 18 18 17 17 17 17 16 16 16 16 16 15 15 15 15 15 14 14 14 14 14 13 13 13 13 13 13 13 13 13 13 12
19 19 19 19 18 18 18 18 18 17 17 17 17 17 17 16 16 16 16 16 15 15 15 15 15 15 14 14 14 13 13 13 13 13 13 13 13 13 13 12 12 12 12
19 18 18 18 18 17 17 17 17 17 17 17 17 16 16 16 16 15 15 15 15 15 15 15 15 14 14 14 14 13 13 13 13 12 12 12 12 12 12 12 12 12 12
18 18 18 17 17 17 17 17 17 16 16 16 16 16 16 15 15 15 15 15 15 15 15 14 14 14 14 14 13 13 13 13 12 12 12 12 12 12 12 11 11 11 11
Wind_Speed
10 11 12 12 11 9 9 9 9 7 6 5 4 4 3 2 2 2 5 6 6 5 4 2 2 2 2 1 1 1 1 0 1 2 2 3 1 1 2 2 2 2 3
10 11 11 12 12 11 10 10 9 8 7 5 4 4 4 2 2 2 3 5 5 5 4 3 2 2 2 1 1 1 1 0 1 2 1 2 3 2 1 1 2 2 2
15 13 13 11 12 12 12 11 9 8 7 6 4 3 3 2 1 2 2 2 5 5 4 3 3 2 2 2 1 2 2 1 1 1 3 2 1 2 2 1 1 1 1
13 13 13 13 13 13 11 10 9 8 8 7 7 6 5 4 3 3 3 2 3 4 4 3 3 3 2 2 2 2 2 2 1 1 0 2 3 2 1 2 1 1 1
15 15 14 14 12 12 11 10 9 8 8 8 8 7 5 4 3 3 3 3 2 2 3 3 3 3 2 2 2 2 2 2 2 1 0 0 0 1 2 2 2 1 1
12 12 12 11 10 10 10 9 9 8 7 8 7 8 7 6 4 4 4 3 2 1 2 3 2 2 2 2 2 2 2 2 2 1 1 2 2 2 2 2 2 1 2
10 10 10 11 11 12 11 10 10 8 7 8 8 8 8 7 7 6 5 4 2 2 3 3 2 2 2 2 2 2 1 2 2 2 2 2 2 2 2 2 2 1 2
9 11 13 12 11 11 11 11 11 9 8 8 8 7 7 5 4 5 4 4 3 3 3 3 3 3 3 3 2 2 2 1 2 2 2 1 1 2 2 3 3 1 1
8 9 11 11 10 11 11 12 11 9 9 9 8 7 6 6 5 5 4 4 3 3 4 3 3 3 3 3 3 2 2 1 1 1 1 1 1 1 2 2 3 3 2
8 9 10 10 10 11 11 10 11 10 9 9 8 8 6 6 6 5 5 4 4 3 3 3 3 3 2 3 3 2 2 2 1 1 1 1 1 1 1 2 2 2 3
10 9 9 10 10 9 9 9 9 9 8 8 7 7 6 6 5 5 5 5 4 4 4 4 3 3 3 3 3 2 2 2 1 1 1 1 1 1 1 1 2 2 2
8 8 8 8 8 8 9 9 9 9 9 8 7 7 6 6 6 5 5 5 4 4 4 4 3 3 3 3 3 3 2 2 2 2 1 2 1 1 1 1 1 2 3
8 7 7 7 8 8 8 8 8 9 8 8 7 6 6 6 6 6 5 5 5 4 4 3 3 3 3 3 3 3 3 3 3 3 3 2 1 1 1 1 1 1 1
8 8 8 8 8 8 8 7 7 7 8 8 7 7 7 7 7 6 5 5 5 5 4 4 4 4 3 3 3 3 3 3 3 3 3 3 3 3 2 1 1 1 1
8 8 9 9 8 8 8 7 6 7 7 7 7 7 6 5 5 5 5 5 5 6 5 4 4 4 4 4 4 4 4 3 3 3 3 3 3 4 3 2 2 2 2
8 8 8 8 8 8 7 6 6 6 7 8 7 6 6 5 5 5 5 4 4 4 4 4 4 4 4 5 6 5 3 3 3 3 2 2 2 3 2 3 3 4 4
6 7 8 8 7 7 7 7 6 6 7 7 6 6 6 6 6 6 5 5 5 4 4 4 4 4 4 5 5 5 4 3 4 4 3 3 2 2 2 2 1 2 4
5 6 7 7 6 6 6 6 5 5 6 6 6 6 7 6 6 5 5 5 4 4 4 4 5 4 4 5 5 4 3 3 3 4 4 4 3 2 2 2 1 2 3
6 5 5 5 6 6 6 6 5 5 5 5 5 6 6 6 6 6 6 5 4 4 4 4 4 4 4 4 5 5 2 2 2 3 2 3 3 3 3 3 2 2 3
4 4 4 5 5 6 7 7 5 5 5 5 5 5 5 6 7 7 6 4 4 4 4 3 3 4 4 4 5 5 2 2 1 1 1 3 3 3 3 3 3 3 4
4 5 5 5 4 5 7 7 6 6 6 4 4 4 4 5 6 5 4 4 4 3 3 3 2 3 4 4 4 4 3 3 2 2 2 2 3 3 3 4 4 5 4
5 5 5 3 3 4 6 6 5 5 4 4 4 4 4 4 4 4 4 4 4 3 3 2 2 2 2 3 3 3 4 3 3 3 2 3 4 4 4 3 4 4 2
4 4 5 3 1 2 4 6 5 4 4 4 4 4 3 3 3 4 4 2 2 3 3 3 2 2 2 2 3 3 3 3 3 2 3 3 4 3 3 3 3 2 1
3 4 4 3 1 1 2 3 3 3 4 4 4 4 4 3 2 2 3 3 3 3 3 3 3 3 2 2 2 2 1 1 1 1 2 3 3 1 1 1 1 1 2
3 4 4 3 2 1 1 1 3 3 4 4 3 3 3 3 3 2 2 3 3 5 5 5 5 5 4 6 6 4 3 3 2 1 0 1 0 0 1 1 1 1 1
4 3 3 3 2 2 1 1 2 3 4 3 3 3 3 3 3 3 1 1 1 3 5 6 5 4 6 6 5 5 5 4 5 3 1 2 2 3 3 3 2 2 2
Wind_Direction
169 161 159 157 151 150 150 154 154 158 151 144 142 141 148 147 149 160 155 155 157 148 137 148 136 134 137 174 153 137 99 41 84 70 13 359 336 242 216 193 184 186 183
163 163 161 160 160 163 162 160 160 163 163 162 158 155 156 162 165 162 152 155 153 152 155 151 145 145 141 137 126 120 124 219 121 122 84 7 357 350 294 178 173 182 173
172 169 167 169 167 170 171 169 168 164 166 161 142 127 102 81 101 137 162 169 154 152 151 152 151 148 146 164 180 151 151 201 280 152 142 147 223 308 334 318 160 176 188
172 171 171 174 177 176 171 164 168 169 169 161 157 157 161 174 195 181 177 176 159 158 162 158 157 157 153 167 195 165 165 155 219 292 233 179 168 166 282 322 313 235 214
174 177 179 179 177 173 169 167 165 171 170 164 164 165 171 181 178 164 165 174 185 176 172 167 161 160 164 170 172 159 156 164 170 181 199 128 99 144 165 245 293 323 287
174 177 177 172 172 171 168 167 166 175 173 169 170 172 172 170 167 173 176 178 178 196 192 173 167 172 171 171 178 177 162 174 162 163 158 162 173 192 175 204 218 243 277
163 166 167 173 177 175 171 171 171 179 177 173 175 177 176 175 182 186 185 177 181 194 210 190 179 183 190 186 175 168 183 180 170 182 190 182 194 188 172 169 194 224 280
170 168 170 175 179 179 174 175 178 182 180 180 181 178 177 178 185 187 182 182 187 194 196 191 186 192 191 188 175 174 200 187 191 203 195 180 201 178 169 173 165 170 315
169 169 167 169 176 182 183 179 177 179 183 184 180 180 181 176 179 180 177 180 184 192 191 191 192 197 188 185 173 176 197 178 191 205 193 193 216 187 187 170 165 165 212
156 156 161 174 186 182 182 177 175 180 181 181 184 186 182 179 178 173 177 181 188 193 182 185 188 189 195 187 170 174 187 162 190 189 152 234 240 209 179 179 182 170 181
159 157 161 171 179 176 177 177 175 177 181 182 181 180 180 178 174 174 181 181 182 185 186 187 185 192 203 190 175 190 178 168 199 232 205 251 215 193 195 176 175 184 171
160 155 155 152 162 170 173 175 176 181 185 182 178 179 176 171 175 181 183 177 177 187 189 185 184 199 202 188 180 194 193 183 200 228 234 264 225 172 197 172 189 208 199
152 151 151 158 167 169 167 172 178 181 178 171 171 173 177 180 187 190 189 185 188 193 192 183 189 196 193 190 194 193 197 199 206 213 209 225 188 215 233 185 215 233 220
160 161 164 172 175 172 169 173 177 175 170 167 171 180 188 192 192 191 187 189 191 194 198 194 196 197 194 195 196 195 203 210 216 212 205 205 191 203 203 201 213 203 175
169 170 172 176 172 166 167 170 174 173 168 165 173 189 192 187 183 185 190 191 192 195 194 196 203 204 203 209 202 208 213 210 225 233 223 216 200 198 193 200 199 178 171
176 176 171 166 168 168 166 165 170 172 165 170 182 184 180 181 184 189 191 190 197 201 196 202 206 215 226 219 214 205 205 203 208 224 236 228 201 201 195 198 196 187 194
170 168 168 171 172 170 166 169 172 164 163 170 175 179 181 183 183 188 189 196 203 206 211 213 209 219 228 219 211 199 188 195 203 206 216 238 227 203 208 228 239 246 232
163 177 176 174 173 168 164 160 153 157 167 174 181 185 185 187 185 184 192 202 202 202 211 219 217 216 229 217 204 189 177 190 209 218 215 210 221 215 180 180 221 274 269
160 180 173 164 162 165 163 150 150 154 164 182 192 196 191 188 186 192 201 204 202 205 210 212 210 208 221 203 188 174 169 189 225 233 207 185 197 215 187 166 189 263 286
135 144 146 136 145 160 152 147 159 164 184 198 203 200 190 189 193 199 200 198 196 205 207 215 206 197 203 207 198 182 171 188 213 248 241 223 210 218 203 187 193 229 260
125 130 131 137 154 161 154 158 166 185 195 189 189 190 193 197 196 191 187 186 187 187 189 190 201 195 195 198 196 183 175 190 198 220 248 251 225 223 222 208 210 225 233
101 114 124 132 143 148 153 160 181 192 177 168 175 186 187 194 189 181 184 185 183 183 188 192 209 210 204 197 194 182 187 186 191 228 244 243 234 241 239 225 223 232 227
121 118 122 115 123 158 162 176 194 178 165 165 175 179 180 184 177 179 186 188 187 188 194 192 208 216 207 209 202 190 193 193 196 231 247 249 246 251 248 247 237 204 169
116 112 116 120 120 166 158 171 176 167 161 172 181 181 179 183 179 173 182 183 190 192 194 199 209 211 207 211 209 206 200 195 207 264 269 258 252 251 263 282 251 188 185
128 124 132 150 173 151 126 133 138 135 157 170 179 176 175 174 177 178 193 197 208 202 198 205 202 198 214 224 204 188 194 193 199 189 22 15 2 309 308 295 278 248 212
135 134 142 157 178 157 146 149 146 144 145 165 180 185 184 184 180 173 176 345 227 220 208 203 193 206 209 199 200 202 201 199 179 152 173 223 230 227 230 237 250 249 234
Height
1504 1506 1509 1511 1513 1515 1517 1518 1520 1522 1523 1524 1526 1527 1528 1529 1531 1532 1533 1534 1534 1534 1535 1535 1535 1536 1536 1536 1536 1536 1536 1535 1535 1534 1534 1534 1534 1534 1534 1535 1535 1535 1536
1503 1505 1507 1509 1511 1513 1515 1517 1518 1520 1522 1524 1525 1527 1528 1529 1530 1531 1532 1533 1533 1534 1534 1534 1535 1535 1535 1535 1536 1536 1535 1535 1535 1534 1533 1533 1535 1534 1535 1535 1535 1535 1535
1499 1502 1505 1508 1510 1511 1513 1515 1517 1519 1521 1523 1525 1526 1527 1528 1529 1530 1531 1532 1533 1533 1534 1534 1534 1534 1535 1535 1535 1535 1535 1534 1534 1534 1534 1533 1533 1534 1534 1534 1534 1534 1534
1497 1500 1502 1505 1507 1509 1511 1514 1516 1517 1519 1521 1523 1524 1525 1527 1528 1529 1530 1531 1532 1532 1533 1533 1533 1534 1534 1534 1534 1534 1534 1534 1533 1533 1533 1533 1533 1533 1533 1534 1534 1534 1533
1494 1497 1499 1502 1505 1508 1510 1512 1514 1516 1518 1519 1521 1523 1525 1526 1528 1529 1529 1530 1531 1531 1532 1532 1532 1533 1533 1533 1533 1533 1533 1533 1532 1532 1532 1532 1532 1532 1532 1531 1532 1532 1532
1493 1496 1499 1502 1504 1506 1508 1510 1513 1515 1516 1518 1520 1522 1523 1525 1526 1527 1528 1528 1529 1530 1531 1531 1531 1531 1531 1531 1532 1532 1531 1531 1531 1531 1531 1531 1531 1530 1530 1530 1529 1530 1530
1491 1494 1497 1501 1502 1504 1506 1508 1511 1513 1515 1517 1519 1520 1522 1524 1525 1526 1527 1527 1528 1528 1529 1529 1530 1530 1530 1530 1530 1530 1530 1530 1529 1529 1529 1529 1529 1529 1529 1529 1528 1528 1528
1490 1492 1494 1497 1500 1502 1504 1506 1509 1511 1513 1515 1517 1519 1521 1522 1523 1525 1525 1526 1527 1527 1528 1528 1528 1529 1529 1529 1529 1528 1528 1528 1527 1527 1527 1527 1527 1527 1527 1527 1526 1526 1526
1489 1490 1492 1495 1498 1500 1502 1504 1507 1509 1511 1513 1515 1517 1519 1520 1522 1523 1524 1525 1525 1526 1526 1526 1527 1527 1527 1527 1527 1526 1526 1526 1525 1525 1525 1524 1525 1525 1525 1525 1525 1525 1524
1487 1489 1491 1494 1496 1498 1501 1503 1505 1507 1509 1511 1513 1515 1517 1518 1520 1521 1521 1522 1523 1524 1524 1524 1525 1525 1525 1525 1525 1524 1524 1524 1523 1523 1523 1523 1523 1523 1523 1523 1523 1523 1522
1486 1488 1490 1492 1496 1498 1500 1502 1503 1506 1508 1510 1511 1513 1515 1516 1518 1518 1519 1520 1521 1521 1522 1522 1522 1522 1522 1522 1522 1522 1522 1522 1521 1521 1521 1521 1521 1521 1520 1520 1520 1520 1520
1484 1486 1488 1491 1494 1496 1498 1500 1502 1504 1506 1508 1509 1511 1513 1514 1515 1516 1517 1518 1518 1519 1519 1519 1520 1520 1520 1520 1520 1520 1520 1519 1519 1519 1519 1519 1519 1518 1518 1518 1518 1518 1517
1484 1486 1488 1490 1492 1493 1496 1498 1500 1502 1504 1506 1507 1509 1510 1511 1512 1514 1515 1515 1516 1516 1516 1517 1517 1517 1517 1517 1517 1517 1518 1517 1517 1517 1517 1517 1516 1516 1516 1516 1515 1515 1515
1484 1485 1487 1489 1490 1492 1494 1496 1498 1500 1501 1502 1504 1506 1508 1509 1510 1511 1512 1513 1514 1514 1514 1514 1514 1514 1515 1515 1515 1515 1515 1515 1515 1514 1514 1514 1514 1514 1514 1513 1513 1512 1512
1483 1484 1486 1487 1487 1489 1492 1494 1496 1497 1499 1500 1501 1503 1506 1507 1507 1508 1509 1510 1511 1511 1511 1512 1512 1512 1512 1512 1512 1512 1512 1512 1512 1512 1512 1512 1512 1511 1511 1511 1510 1510 1510
1480 1482 1484 1485 1487 1488 1490 1492 1493 1495 1496 1498 1500 1502 1503 1504 1505 1506 1507 1508 1508 1509 1509 1509 1509 1509 1509 1509 1509 1509 1509 1509 1509 1509 1509 1509 1509 1509 1508 1508 1508 1508 1507
1479 1480 1481 1483 1485 1487 1488 1489 1491 1493 1494 1496 1497 1499 1500 1501 1501 1502 1504 1505 1505 1506 1506 1506 1506 1506 1506 1506 1506 1506 1506 1506 1506 1506 1506 1506 1506 1506 1506 1505 1505 1505 1505
1477 1479 1480 1481 1483 1485 1487 1488 1489 1491 1492 1493 1495 1496 1496 1497 1498 1499 1500 1501 1502 1502 1503 1503 1503 1503 1503 1503 1503 1503 1503 1503 1503 1503 1503 1503 1503 1503 1503 1503 1502 1502 1501
1475 1476 1478 1479 1480 1483 1485 1486 1487 1488 1490 1491 1492 1492 1493 1494 1495 1496 1497 1498 1499 1499 1500 1500 1500 1500 1500 1500 1500 1500 1500 1500 1500 1500 1500 1500 1500 1500 1500 1500 1499 1499 1498
1474 1475 1476 1477 1479 1480 1482 1483 1484 1485 1486 1488 1489 1490 1490 1490 1491 1492 1493 1495 1496 1496 1497 1497 1497 1497 1497 1497 1497 1497 1497 1497 1497 1497 1497 1498 1497 1497 1497 1497 1496 1496 1495
1472 1474 1475 1475 1476 1478 1479 1480 1481 1482 1483 1485 1486 1487 1488 1488 1488 1489 1490 1491 1492 1493 1493 1493 1493 1494 1494 1494 1494 1494 1494 1494 1494 1494 1494 1494 1494 1494 1494 1494 1493 1493 1492
1471 1472 1473 1473 1474 1475 1476 1477 1478 1479 1481 1482 1483 1484 1485 1485 1486 1486 1487 1488 1489 1489 1490 1490 1490 1490 1490 1491 1491 1491 1491 1491 1491 1491 1491 1491 1491 1491 1491 1491 1490 1490 1490
1469 1470 1471 1471 1472 1473 1474 1474 1475 1477 1478 1479 1479 1480 1481 1482 1483 1483 1484 1484 1485 1486 1486 1487 1487 1487 1487 1487 1488 1488 1488 1488 1488 1488 1488 1489 1489 1488 1488 1487 1487 1487 1486
1468 1469 1469 1470 1470 1471 1471 1472 1473 1474 1475 1475 1476 1476 1477 1478 1479 1480 1481 1481 1482 1482 1483 1483 1483 1483 1484 1484 1484 1485 1485 1485 1485 1485 1485 1485 1485 1485 1485 1484 1484 1484 1483
1466 1467 1468 1468 1469 1469 1469 1470 1470 1471 1471 1472 1473 1474 1474 1475 1476 1477 1478 1479 1479 1480 1480 1480 1480 1480 1480 1481 1481 1481 1481 1481 1481 1481 1482 1482 1482 1481 1481 1481 1481 1481 1481
1465 1466 1466 1467 1467 1467 1467 1467 1468 1468 1468 1469 1470 1471 1471 1472 1473 1474 1475 1475 1476 1477 1477 1477 1478 1477 1478 1478 1478 1478 1478 1478 1478 1478 1478 1478 1478 1478 1478 1478 1478 1478 1477